SM7GXQ Weather Reports


time (UTC)temp
F
wind
direction
speed
knots
gust
knots
rain 1hr
in
rain 24hr
in
rain mn
in
humidity
%
barometer
mb
20260903203005 62 190 3.5 6.1 0.01 0.28 0.28 95 1002.0
20260903194504 62 192 0.9 4.3 0.01 0.28 0.28 94 1002.7
20260903191504 62 198 2.6 5.2 0.20 0.28 0.28 94 1003.0
20260903190005 62 193 1.7 6.1 0.25 0.28 0.28 94 1003.2
20260903183004 62 183 3.5 7.0 0.24 0.25 0.25 94 1003.6
20260903180004 62 188 1.7 6.1 0.01 0.02 0.02 93 1004.0
20260903173005 62 176 1.7 8.7 0.00 0.02 0.02 93 1004.5
20260903171504 62 179 2.6 7.0 0.01 0.02 0.02 93 1004.5
20260903164504 62 189 2.6 7.0 0.01 0.02 0.02 92 1004.7
20260903163005 62 181 2.6 7.0 0.01 0.02 0.02 91 1005.9
20260903161504 62 184 2.6 8.7 0.00 0.01 0.01 91 1005.9
20260903153005 62 198 1.7 8.7 0.00 0.01 0.01 91 1005.9
20260903151505 62 190 2.6 8.7 0.00 0.01 0.01 91 1006.7
20260903150004 62 184 3.5 12.2 0.00 0.01 0.01 90 1006.7
20260903140004 63 191 4.3 10.4 0.01 0.01 0.01 89 1007.4
20260903134505 63 190 3.5 10.4 0.01 0.01 0.01 89 1007.4
20260903133004 63 204 5.2 14.8 0.01 0.01 0.01 90 1007.4
20260903123005 66 194 3.5 7.8 0.00 0.00 0.00 80 1008.0
20260903121504 66 195 2.6 8.7 0.00 0.00 0.00 81 1008.0
20260903114505 66 192 1.7 7.8 0.00 0.00 0.00 80 1008.2
20260903113005 66 210 3.5 7.8 0.00 0.00 0.00 78 1008.8
20260903110005 66 221 0.9 6.1 0.00 0.00 0.00 78 1008.8
20260903101504 65 238 1.7 7.0 0.00 0.00 0.00 79 1009.5
20260903100004 65 207 1.7 7.0 0.00 0.00 0.00 78 1009.5
20260903084504 62 216 2.6 7.8 0.00 0.00 0.00 82 1010.1
20260903083005 61 229 2.6 7.0 0.00 0.00 0.00 83 1010.1
20260903071504 60 200 2.6 7.0 0.00 0.00 0.00 85 1010.6
20260903063005 60 230 2.6 7.8 0.00 0.00 0.00 85 1010.7
20260903054504 59 222 3.5 7.8 0.00 0.00 0.00 87 1010.7
20260903053005 59 233 2.6 7.0 0.00 0.00 0.00 87 1010.7
20260903051505 58 232 3.5 8.7 0.00 0.00 0.00 87 1010.7
20260903044504 58 253 2.6 7.0 0.00 0.00 0.00 88 1010.6
20260903041504 58 188 1.7 6.1 0.00 0.00 0.00 91 1010.7
20260903034504 58 238 1.7 6.1 0.00 0.00 0.00 91 1010.8
20260903030004 59 211 0.9 8.7 0.00 0.00 0.00 90 1010.9
20260903024504 59 236 2.6 10.4 0.00 0.00 0.00 90 1010.9
20260903014504 60 249 1.7 7.0 0.00 0.00 0.00 90 1010.9
20260903011504 60 233 1.7 5.2 0.00 0.00 0.00 90 1011.0
20260903004504 60 247 0.9 7.0 0.00 0.00 0.00 90 1011.0
20260903001505 60 212 1.7 7.0 0.00 0.00 0.00 90 1011.0
20260902223004 61 218 2.6 7.8 0.00 0.00 0.00 89 1011.0
20260902221505 61 230 2.6 8.7 0.00 0.00 0.00 89 1011.0
20260902214504 62 244 1.7 7.8 0.00 0.00 0.00 88 1011.0
20260902211504 62 248 1.7 8.7 0.00 0.00 0.00 88 1010.8
20260902204504 62 266 1.7 5.2 0.00 0.00 0.00 87 1010.8